www.pogodaiklimat.ru

Погода и климат >> Архив погоды >> Россия >> Чукотка >> Раучуа


ПОГОДА в Раучуе

  • Прогноз погоды в Раучуе
  • Монитор погоды в Раучуе

АРХИВ ПОГОДЫ в Раучуе

Время (UTC), дата Ветер
(напр.,м/с)
 
Видим.   Явления Облачность Т
(С)
Тd
(С)
f
(%)
Тe
(С)
Тes
(С)
Комфортность P
(гПа)
Po
(гПа)
Тmin
(С)
Tmax
(С)
R
(мм)
R24
(мм)
S
(см)
18 14.07 В 5
{7}
10 км слаб. ливневой дождь 10/10 300 м
[Cb cap]
+7.1 +6.7 97 +3 +3 1004.1 1003.5
21 14.07 СВ 5
{10}
10 км слаб. ливневой дождь 10/10 300 м
[Cb cap]
+5.6 +5.1 97 +1 +1 1004.1 1003.5 +5.2 7
00 15.07 С 7
{9}
10 км слаб. ливневой дождь 10/10 300 м
[Cb cap]
+5.0 +4.3 95 -1 -1 1004.5 1003.9
03 15.07 С 3
{8}
20 км {ливн. осадки} 10/8 300 м
[Cb cap Ac und]
+4.2 +3.2 93 0 +1 1005.9 1005.3
06 15.07 С 4
{7}
20 км {ливн. осадки} 9/8 600 м
[Cb cap Ac trans]
+3.4 +2.4 93 -1 -1 1006.7 1006.1
09 15.07 С 4
{5}
20 км 9/9 300 м
[Sc]
+3.6 +2.9 95 -1 -1 1007.6 1007.0 +6.3 4
12 15.07 штиль 0
{5}
500 м туман ?/? +1.6 +1.6 100 0 0 1007.4 1006.8
15 15.07 ЮВ 1
{4}
500 м туман ?/? +2.5 +2.5 100 +1 +1 1006.2 1005.6
18 15.07 штиль 0
{4}
20 км в посл. час туман 9/9 200 м
[St]
+3.6 +3.1 97 +2 +3 1006.0 1005.4
21 15.07 штиль 0
{3}
20 км 9/9 200 м
[St]
+5.8 +3.2 83 +5 +6 1005.2 1004.6 +1.5
00 16.07 штиль 0
{2}
20 км 4/3 600 м
[Sc Ci fib]
+6.1 +3.5 83 +5 +14 опасность
простуды
1004.8 1004.2
03 16.07 Ю 2
{5}
20 км 10/10 600 м
[Cb cap]
+8.7 +5.6 81 +7 +7 1003.8 1003.2
06 16.07 З 2
{8}
20 км 10/9 600 м
[Cb cap Ac und]
+10.7 +7.1 78 +9 +10 1003.3 1002.7
09 16.07 З 5
{12}
10 км слаб. ливневой дождь 10/10 600 м
[Cb cap]
+9.1 +8.1 93 +6 +6 1003.4 1002.8 +10.9 0.4
12 16.07 ЮВ 1
{3}
20 км {ливн. осадки} 10/9 600 м
[Cb cap Ac und]
+6.6 +5.9 95 +5 +5 1002.5 1001.9
15 16.07 З 5
{12}
20 км {ливн. осадки} 8/6 600 м
[Cb cap Ac trans]
+5.7 +4.8 94 +1 +1 1003.9 1003.3
18 16.07 З 6
{9}
20 км {ливн. осадки} 10/9 600 м
[Cb cap Ac und]
+4.8 +4.6 99 -1 -1 1004.6 1004.0
21 16.07 З 5
{9}
20 км 8/8 600 м
[Cb cap Ac trans]
+4.1 +2.3 88 -1 -0 1005.6 1005.0 +4.5 0.3
00 17.07 СЗ 6
{8}
20 км 6/4 600 м
[Sc Ac trans]
+3.6 +1.5 86 -2 -0 1006.1 1005.5
03 17.07 СЗ 4
{7}
20 км 8/4 600 м
[Cb cap Ac lent Ci fib]
+4.3 +2.0 85 -0 +2 1005.7 1005.1
06 17.07 штиль 0
{5}
20 км 8/6 600 м
[Cb cap Ac trans]
+5.3 +2.6 83 +4 +6 1006.1 1005.5
09 17.07 штиль 0
{2}
10 км слаб. ливневой дождь 9/9 600 м
[Cb cap]
+6.0 +3.6 85 +5 +5 1006.3 1005.7 +6.2 0.5
12 17.07 штиль 0
{2}
20 км {ливн. осадки} 9/9 600 м
[Cb cap]
+6.1 +5.0 93 +5 +5 1006.0 1005.4
15 17.07 штиль 0
{2}
20 км {ливн. осадки} 9/9 600 м
[Cb cap]
+5.4 +4.7 95 +4 +4 1005.8 1005.2
18 17.07 штиль 0
{2}
20 км {ливн. осадки} 9/9 600 м
[Cb cap]
+3.1 +2.1 93 +2 +2 1005.8 1005.2
21 17.07 С 3
{4}
20 км 10/10 600 м
[Cb cap]
+2.6 +1.8 94 -2 -2 1006.3 1005.7 +2.5 0.8
00 18.07 С 3
{4}
20 км 9/8 600 м
[Cb cap Ac trans]
+2.4 +1.6 94 -2 -1 1007.0 1006.4
03 18.07 СЗ 3
{6}
20 км 9/9 600 м
[Sc]
+2.3 +1.5 94 -2 -1 1008.8 1008.2
06 18.07 СЗ 6
{8}
20 км 10/10 600 м
[Sc]
+1.8 +0.7 92 -4 -4 1009.9 1009.3
09 18.07 СЗ 7
{8}
20 км 9/9 600 м
[Sc]
+2.2 +0.9 91 -4 -4 1010.8 1010.2 +3.3
12 18.07 СЗ 6
{8}
20 км 10/10 600 м
[Sc]
+2.1 +0.5 89 -4 -4 1012.6 1012.0
15 18.07 З 5
{9}
20 км 10/10 600 м
[Sc]
+1.4 +0.6 94 -5 -5 1013.3 1012.7
18 18.07 СЗ 5
{7}
20 км 10/10 300 м
[Sc]
+1.1 +0.6 96 -5 -5 1014.1 1013.5
21 18.07 СЗ 4
{6}
20 км 10/10 300 м
[Sc]
+0.8 0.0 94 -5 -5 1015.0 1014.4 +0.8
00 19.07 СЗ 4
{6}
20 км 10/10 600 м
[Sc]
+2.0 +1.2 94 -3 -3 1015.3 1014.7
03 19.07 С 4
{5}
20 км 10/10 300 м
[Sc]
+2.2 +1.7 96 -3 -3 1015.0 1014.4
06 19.07 С 3
{5}
20 км 8/6 300 м
[Sc Ac trans]
+2.2 +1.4 94 -2 -1 1014.5 1013.9
09 19.07 СЗ 2
{5}
20 км 9/8 600 м
[Sc Ac trans]
+3.2 +1.9 91 0 0 1014.4 1013.8 +3.5
12 19.07 СЗ 1
{4}
20 км 10/10 600 м
[Sc]
+2.7 +1.9 94 +1 +1 1013.8 1013.2
15 19.07 СЗ 1
{4}
20 км 10/10 600 м
[Sc]
+2.5 +1.7 94 +1 +1 1013.5 1012.9
18 19.07 З 3
{6}
4000 м дымка 10/10 300 м
[Sc]
+3.4 +2.9 97 -1 -1 1013.3 1012.7
21 19.07 СЗ 5
{7}
4000 м дымка 10/10 300 м
[St]
+3.4 +2.9 97 -2 -2 1013.7 1013.1 +2.6
00 20.07 СЗ 5
{8}
20 км 10/8 600 м
[Cb cap Ac und]
+2.6 +1.6 93 -3 -3 1014.6 1014.0
03 20.07 СЗ 4
{7}
20 км 10/10 600 м
[Sc]
+3.5 +0.9 83 -1 -1 1014.7 1014.1
06 20.07 СЗ 4
{7}
20 км 9/6 600 м
[Sc Ac lent Ci fib]
+3.6 +1.5 86 -1 -0 1014.6 1014.0
09 20.07 СЗ 1
{5}
20 км 9/8 600 м
[Cb cap Ac trans]
+3.3 +2.0 91 +2 +2 1014.4 1013.8 +3.8
12 20.07 СЗ 1
{3}
20 км 10/8 600 м
[Cb cap Ac und]
+3.0 +2.0 93 +1 +1 1013.8 1013.2
15 20.07 З 2
{4}
20 км 10/10 300 м
[Sc]
+3.4 +2.4 93 0 0 1012.7 1012.1
18 20.07 З 1
{3}
20 км 10/10 600 м
[Sc]
+3.7 +1.7 87 +2 +2 1011.2 1010.6
21 20.07 С 2
{4}
20 км 9/8 600 м
[Sc Ac trans Ci fib]
+4.3 +2.3 87 +2 +2 1010.0 1009.4 +2.5
00 21.07 СВ 4
{5}
20 км 9/6 600 м
[Cb cap Ac trans Ci fib]
+4.7 +3.3 91 0 +2 1008.1 1007.5
03 21.07 СВ 5
{6}
20 км 8/5 600 м
[Sc Ci fib]
+5.8 +2.9 82 +1 +3 1005.9 1005.3
06 21.07 ЮВ 5
{8}
20 км 8/5 600 м
[Sc Ac trans]
+10.6 +4.8 67 +8 +8 1004.1 1003.5
09 21.07 В 6
{9}
20 км 8/3 600 м
[Cb cap Ac trans Ci fib]
+9.6 +5.6 76 +6 +6 1003.9 1003.3 +11.4
12 21.07 ЮВ 5
{8}
20 км 8/3 600 м
[Cb cap Ac trans Ci fib]
+7.4 +6.2 92 +3 +3 1003.4 1002.8

 

Местоположение метеостанции Раучуа (Чукотка, Россия): широта 69.50 долгота 166.50 высота над уровнем моря 5 м.

В архиве по умолчанию представлена погода в Раучуе за последнюю неделю. Архивные данные за месяц целиком и за предыдущие месяцы, начиная с января 2011 года, Вы можете получить, выбрав интересующий диапазон дат из раскрывающегося списка и нажав кнопку "Ввод!".


*Определитесь, кто Вы:
робот инопланетянин человек

Внимание! Время в таблицах - всемирное. Для получения местного времени необходимо прибавить поправку, которая равна 12 ч.

Смотрите также архив погоды в соседних городах и на ближайших метеорологических станциях:

Погода на Айон Острове (Чукотка, Россия) (72 км)
Погода в Певеке (Чукотка, Россия) (145 км)
Погода в Билибино (Чукотка, Россия) (161 км)
Погода в Бухте Амбарчик (Чукотка, Россия) (164 км)
Погода на 21 км (Чукотка, Россия) (169 км)
Погода в Чауне (Чукотка, Россия) (180 км)
Погода в Валькаркае (Чукотка, Россия) (181 км)
Погода в Островном (Чукотка, Россия) (181 км)
Погода в Черском (Якутия, Россия) (223 км)
Погода в Анюйске (Чукотка, Россия) (237 км)

Пояснения к столбцам:

Ветер - указаны скорость ветра в м/с - средняя за 10 мин, порывы в срок и между сроками (в фигурных скобках) и направление, откуда дует ветер: С - северный, СВ - северо-восточный, В - восточный, ЮВ - юго-восточный, Ю - южный, ЮЗ - юго-западный, З - западный, СЗ - северо-западный.
Видимость - горизонтальная дальность видимости в метрах или километрах. При видимости от 1 до 10 км при отсутствии осадков обычно наблюдается дымка, при ухудшении видимости до 1 км и менее - туман. В сухую погоду видимость может ухудшаться дымом, пылью или мглою.
Явления - указаны атмосферные явления, наблюдавшиеся в срок или в последний час перед сроком; фигурными скобками обозначены явления, наблюдавшиеся между сроками (за 1-3 часа до срока); квадратными скобками обозначены град или гололедные отложения с указанием их диаметра в мм.
Облачность - указаны через наклонную черту общая и нижняя облачность в баллах и высота нижней границы облаков в метрах; квадратными скобками обозначены формы облаков: Ci - перистые, Cs - перисто-слоистые, Cc - перисто-кучевые, Ac - высококучевые, As - высокослоистые, Sc - слоисто-кучевые, Ns - слоисто-дождевые, Cu - кучевые, Cb - кучево-дождевые. Подробнее классификацию облаков см. в Атласе облаков (PDF).
T - Температура воздуха - температура, измеренная на высоте 2 м над землей.
Td - Температура точки росы - температура, при понижении до которой содержащийся в воздухе водяной пар достигнет насыщения.
f - Относительная влажность воздуха - влажноcть воздуха, измеренная на высоте 2 м над землей.
Te - Эффективная температура - температура, которую ощущает одетый по сезону человек в тени. Характеристика душности погоды. При расчете учитывается влияние влажности воздуха и скорости ветра на теплоощущения человека.
Tes - Эффективная температура на солнце - температура, которую ощущает человек, с поправкой на солнечный нагрев. Характеристика знойности погоды. Зависит от высоты солнца над горизонтом, облачности и скорости ветра. Ночью, в пасмурную погоду, а также при ветре 12 м/с и более поправка равна нулю.
P - Атмосферное давление - приведенное к уровню моря атмосферное давление.
Po - Атмосферное давление - измеренное на уровне метеостанции атмосферное давление.
Tmin - Минимальная температура - минимум температуры воздуха на высоте 2 м над землей.
Tmax - Максимальная температура - максимум температуры воздуха на высоте 2 м над землей.
R - Количество осадков - Количество выпавших осадков за период времени, мм. При наведении курсора мыши на число - период времени, за который выпало указанное количество осадков.
R24 - Количество осадков - Количество выпавших осадков за 24 часа, мм.
S - Снежный покров - Высота снежного покрова, см. При наведении курсора мыши на число - состояние снежного покрова и степень покрытия местности в баллах.